Tracking 29591 objects as of 19-Sep-2024
HD Live streaming from Space Station
objects crossing your sky now

COSMOS 797

Track COSMOS 797 now!
10-day predictions
COSMOS 797 is classified as:


NORAD ID: 8613
Int'l Code: 1976-008G
Perigee: 1,485.3 km
Apogee: 1,536.4 km
Inclination: 74.1 °
Period: 116.1 minutes
Semi major axis: 7881 km
RCS: 0.7129 m2 (medium)
Launch date: January 28, 1976
Source: Commonwealth of Independent States (former USSR) (CIS)
Launch site: PLESETSK MISSILE AND SPACE COMPLEX (PKMTR)
Your satellite tracking list
Your tracking list is empty




NASA's NSSDC Master Catalog

Two Line Element Set (TLE):
1 08613U 76008G   24262.89552045  .00000005  00000-0  15479-3 0  9997
2 08613  74.0561 174.4763 0032400 228.8726 198.6678 12.40675287203090
Source of the keplerian elements: AFSPC